Temp
33 31 31 30 32 34 35 34 34 33 33 32 31 30 28 27 26 28 29 29 29 27 27 29 28 28 28 27 27 27 25 25 28 26 26 30 32 31 33 32 32 31 31 32 32 31 31 30 30 30 29 29 28 28 27 27 27 27 26 26 26 26 26 26 26 26 27 27 27 27 27 27 27 27 27 27 27 27 26 26 25 25 25 24 24 24
33 30 31 33 34 35 34 34 34 33 34 33 32 30 29 28 27 29 30 30 30 28 26 29 29 27 28 28 27 27 26 25 28 27 25 29 32 31 32 32 31 32 31 31 31 31 31 31 30 30 29 29 28 28 27 27 27 27 27 26 26 26 26 26 26 26 27 27 27 27 27 28 27 27 27 27 27 27 26 25 25 25 25 24 24 24
30 30 33 35 35 34 33 34 33 33 34 33 32 30 27 28 28 28 30 30 30 28 26 28 29 28 29 28 27 27 27 27 27 26 24 26 30 32 32 32 32 31 31 30 31 32 31 31 30 30 30 29 28 28 27 27 27 27 27 26 26 26 26 26 26 26 26 27 27 27 27 28 28 28 28 28 27 27 27 25 25 25 25 25 25 25
27 31 35 35 34 33 33 33 33 33 33 33 32 28 26 29 28 26 28 30 30 29 27 28 28 28 28 27 27 27 26 26 25 24 24 23 26 30 32 32 31 31 31 31 31 32 31 31 30 30 30 29 29 28 28 27 27 27 27 26 26 26 26 26 26 26 26 26 26 27 27 27 27 27 27 27 27 27 27 26 26 25 25 25 25 25
30 33 35 34 33 33 32 33 34 32 31 33 33 30 28 30 30 28 29 30 30 29 29 27 25 26 28 27 27 27 25 25 25 25 25 25 25 28 32 32 32 32 31 31 31 31 32 31 31 30 30 29 29 28 28 28 28 28 27 26 26 26 26 26 26 26 26 26 26 26 26 26 26 27 27 27 27 27 27 26 26 26 25 25 26 26
33 34 34 33 33 33 32 32 33 32 29 30 33 34 33 33 32 32 31 29 26 25 27 27 22 22 27 27 27 27 25 24 25 26 27 27 26 26 30 32 32 32 31 31 31 31 32 31 31 30 30 30 29 29 29 29 28 28 27 26 26 26 26 26 26 25 25 25 25 26 26 26 26 27 27 27 27 27 27 26 26 27 26 26 26 26
33 35 33 32 33 33 32 32 33 34 28 26 32 35 35 35 33 31 30 27 23 23 27 27 23 22 24 26 28 28 26 24 24 26 27 28 26 25 28 32 32 32 31 31 31 32 32 31 31 30 30 30 30 29 29 29 29 28 27 26 26 26 26 26 25 25 25 25 26 26 27 27 27 27 27 27 28 28 27 27 26 27 26 26 26 26
34 34 32 33 33 32 32 31 33 34 29 27 33 35 34 34 32 31 29 26 25 26 26 26 25 23 22 25 29 28 26 25 24 26 27 28 28 26 27 31 33 32 32 31 31 31 32 31 31 31 30 31 31 30 30 29 29 28 27 27 26 26 26 26 26 25 25 25 26 26 27 27 27 27 27 27 27 27 27 27 27 27 27 26 26 26
34 33 32 33 32 31 32 32 34 35 31 31 35 35 33 33 32 32 29 26 28 26 22 24 26 23 21 24 28 28 25 25 24 25 27 28 28 28 27 30 33 32 32 32 31 31 32 32 31 31 31 31 31 31 30 30 29 28 27 27 26 26 26 26 26 25 25 25 26 26 26 27 27 27 27 27 27 27 27 27 27 27 27 26 26 26
34 33 33 33 32 32 33 35 35 34 33 34 35 35 34 33 32 31 29 26 26 24 21 24 25 23 22 23 25 26 25 25 25 25 27 28 28 28 28 29 32 32 32 32 32 32 32 32 31 31 31 31 31 31 30 30 29 28 27 27 26 26 26 26 26 25 25 25 25 26 26 26 26 27 27 27 27 26 26 26 26 26 26 26 26 26
34 34 34 33 33 34 34 35 34 34 34 34 34 34 33 32 32 31 29 27 24 22 23 24 25 23 22 23 25 26 27 28 27 25 27 28 28 28 28 29 31 32 32 32 32 32 32 32 31 31 31 31 31 31 31 30 30 29 28 27 26 26 26 26 25 25 25 25 25 26 26 26 26 26 26 26 26 26 26 26 26 26 26 26 27 27
34 33 33 33 34 34 34 33 34 34 34 34 34 32 28 28 28 26 26 25 22 22 23 24 26 24 21 23 26 29 30 31 29 26 26 28 28 28 29 29 31 32 32 32 32 32 32 32 31 31 31 31 31 31 31 31 30 29 28 27 26 26 26 26 26 26 26 26 26 26 26 26 26 26 26 26 26 26 26 26 26 26 26 26 27 27
33 33 34 34 34 34 33 32 32 33 34 33 32 28 24 23 23 22 22 23 22 22 23 25 25 24 23 26 29 30 31 31 29 27 27 28 28 28 29 29 30 32 33 32 32 32 32 32 32 32 31 31 31 31 31 31 30 30 29 28 27 26 26 26 26 26 26 26 26 26 26 26 26 26 26 26 26 26 26 26 27 26 26 26 27 27
28 32 34 33 33 34 33 30 28 30 32 32 29 25 23 22 22 22 22 22 22 23 24 25 24 23 23 28 32 32 32 32 30 28 28 28 28 28 29 29 29 31 33 32 32 32 31 32 32 32 31 30 31 31 31 31 30 30 29 28 27 27 26 26 26 26 26 26 26 26 26 26 26 26 26 26 26 27 27 27 27 27 27 27 27 27
24 26 30 32 32 33 33 32 31 31 32 32 33 30 24 23 22 22 22 22 22 23 23 24 23 22 23 27 33 33 33 33 30 28 28 28 29 29 29 29 28 31 33 33 32 32 32 32 32 31 31 31 31 31 31 31 30 30 29 28 27 27 26 26 26 26 26 26 26 26 26 27 26 26 26 26 26 27 27 27 27 27 27 28 28 27
23 24 31 33 33 33 33 34 34 33 30 30 33 31 25 26 26 23 23 23 22 22 22 22 23 25 26 29 33 33 33 33 30 29 28 28 28 28 27 27 28 31 33 33 32 32 32 32 32 32 31 31 31 30 30 31 30 30 29 28 28 27 27 27 26 26 26 26 26 26 26 27 27 27 27 27 26 27 27 27 27 27 27 28 28 27
23 25 33 34 32 34 33 33 35 31 28 29 28 26 27 31 30 24 22 24 23 21 22 22 23 26 27 28 31 32 32 32 30 29 29 28 28 27 26 25 26 29 32 33 32 32 32 32 32 32 31 31 31 31 30 30 30 29 29 28 28 27 27 27 27 27 27 26 26 26 26 27 27 27 27 27 27 27 27 27 27 27 27 27 27 27
26 25 32 34 32 33 33 33 34 33 31 29 25 26 30 31 30 26 22 22 22 21 22 23 22 23 23 23 27 29 29 30 31 30 29 28 28 27 27 26 25 26 31 33 32 32 32 32 32 32 31 31 31 31 30 30 30 29 29 29 28 28 28 27 27 27 27 27 27 27 27 27 27 27 27 28 28 28 28 27 27 28 28 28 28 28
31 24 29 34 32 33 34 32 31 32 33 31 27 29 30 25 24 24 22 22 22 21 22 22 23 23 22 23 26 27 26 28 29 30 30 28 27 27 27 27 25 24 30 33 32 32 32 32 32 32 31 31 31 31 30 30 30 29 29 29 28 28 28 28 28 28 27 27 27 27 27 27 27 27 28 28 28 28 28 28 28 28 28 28 28 27
33 26 25 32 34 33 33 30 27 27 31 32 31 31 30 26 23 23 22 22 22 22 22 22 22 23 24 26 28 27 27 27 25 27 29 29 28 27 28 28 26 24 28 32 32 32 32 32 32 32 31 31 31 31 31 30 30 30 29 29 29 28 28 29 29 29 28 28 28 28 27 27 27 27 27 28 28 28 28 28 28 28 28 28 28 28
33 28 24 29 34 31 29 29 28 26 27 28 28 27 27 28 27 25 23 22 22 22 21 22 22 22 25 28 29 27 27 27 25 24 27 30 30 28 28 29 26 24 26 30 32 32 32 32 32 32 31 31 31 31 31 30 30 30 30 29 29 29 29 29 29 29 29 28 28 28 28 28 28 27 28 28 28 28 28 28 28 29 29 28 28 28
31 29 24 25 28 26 27 31 32 30 29 29 28 27 27 27 25 23 22 23 24 23 22 22 21 22 25 28 28 27 25 26 27 25 24 28 30 29 27 28 27 25 27 29 31 32 31 32 32 32 32 31 31 31 31 31 31 30 30 30 30 30 29 30 30 29 29 29 28 28 28 28 28 28 28 28 28 28 28 28 28 28 29 29 28 28
31 30 25 24 26 29 31 33 32 31 31 31 30 30 30 29 24 21 21 22 24 23 24 23 22 23 26 28 28 26 24 26 28 27 25 26 29 29 27 27 26 26 27 28 30 32 32 32 32 32 32 31 31 31 31 31 31 30 30 30 30 30 30 30 29 29 28 28 28 28 28 28 28 28 28 29 29 29 29 29 29 28 28 29 29 28
30 29 25 23 27 31 33 33 32 32 31 29 30 30 29 28 27 25 23 22 23 23 23 23 21 23 26 28 28 27 26 27 28 28 27 26 28 29 27 26 26 25 26 27 29 31 31 31 31 31 31 31 31 31 31 31 30 30 30 30 30 30 29 29 29 29 28 28 28 28 28 28 28 28 29 29 29 29 29 29 29 29 28 29 29 29
28 27 25 22 23 25 27 28 28 29 29 29 29 28 26 25 26 27 25 23 23 23 23 23 21 23 25 27 28 26 26 28 28 27 27 26 27 28 27 27 26 24 25 26 28 30 30 30 30 30 30 31 31 31 30 30 30 30 30 30 30 29 29 29 29 29 28 28 28 28 28 28 28 28 29 29 29 29 29 29 29 29 29 29 29 29
29 28 26 22 21 22 22 23 24 25 26 28 28 26 25 26 26 25 24 23 22 23 23 23 21 23 26 28 28 26 26 28 28 27 26 26 27 27 27 27 26 25 25 25 27 29 29 30 30 30 30 30 31 30 30 30 30 29 29 29 29 29 29 29 29 29 28 28 28 28 28 28 28 28 29 28 29 29 29 29 30 30 29 29 29 29
30 29 28 25 23 23 23 24 28 28 26 26 27 27 27 29 29 26 23 22 23 23 23 22 23 24 25 27 26 25 26 28 27 26 26 26 26 26 27 26 26 25 24 25 25 27 29 30 30 30 30 30 30 30 29 29 29 29 29 29 29 29 28 28 28 28 28 27 27 28 28 28 29 29 29 28 28 28 29 29 29 30 30 29 29 29
28 27 28 28 26 27 28 29 30 30 26 26 27 27 28 30 29 26 23 22 23 23 21 23 25 24 25 27 26 25 26 26 25 25 25 26 25 26 26 26 25 25 24 24 24 25 26 29 30 30 30 30 30 29 28 28 28 28 28 28 29 28 28 28 28 28 27 27 27 27 28 28 29 29 28 28 28 28 28 29 29 29 29 29 29 29
28 26 28 30 28 29 31 31 31 30 28 28 28 27 28 29 28 26 24 24 24 22 22 24 24 24 26 27 26 26 26 23 23 25 26 25 25 25 25 25 25 25 24 23 24 24 23 25 28 29 29 29 29 29 29 29 28 28 28 28 28 28 28 28 28 28 27 26 26 27 27 28 28 28 28 27 27 26 27 27 28 29 29 29 29 29
28 26 29 30 27 28 31 31 31 30 28 27 27 28 28 29 28 28 27 27 26 23 24 26 25 25 27 27 26 27 25 23 25 26 25 25 25 25 25 25 24 24 23 22 22 23 23 24 27 29 29 29 29 29 29 29 28 28 28 28 28 28 28 27 27 27 27 26 26 26 27 27 27 27 27 26 25 25 26 26 26 27 28 28 28 28
27 26 30 29 25 26 30 31 31 30 28 27 26 28 29 29 28 28 28 29 28 25 26 27 25 24 26 26 27 27 24 23 25 26 25 25 25 25 25 25 24 24 23 22 21 22 22 22 24 27 29 29 28 28 28 28 28 28 27 27 27 27 27 27 27 27 27 26 25 25 26 26 26 26 25 25 25 26 26 26 26 26 27 27 27 27
28 27 29 28 23 23 28 30 29 30 29 26 26 28 28 28 27 28 28 29 27 24 25 25 24 25 25 24 25 27 24 23 25 25 25 25 25 25 25 24 24 24 23 22 21 21 22 21 22 25 28 28 28 28 28 27 27 27 27 27 27 27 27 26 26 26 26 26 25 24 25 25 25 25 24 25 25 25 25 26 25 25 26 26 26 26
30 28 27 26 23 22 27 29 28 27 25 23 25 28 29 29 29 29 29 29 27 25 25 24 24 26 25 22 24 26 24 23 25 25 24 24 24 24 24 23 23 22 22 22 21 21 21 21 21 23 26 26 27 27 27 27 27 27 27 27 26 26 26 26 26 26 26 26 25 24 25 24 24 24 24 24 24 25 25 25 25 25 25 25 25 26
30 28 27 27 23 22 26 28 26 24 22 22 26 28 29 29 29 28 28 29 28 27 26 24 25 26 24 22 23 25 24 24 24 24 23 23 23 23 23 23 22 21 20 20 20 20 20 20 20 21 22 24 25 26 26 26 26 26 26 26 26 26 26 26 26 26 25 25 25 23 24 24 24 24 23 23 24 24 24 24 24 24 24 24 25 25
30 28 28 27 24 23 25 25 22 21 22 25 29 30 29 29 29 28 29 29 29 29 27 26 26 25 23 23 24 25 24 24 24 23 23 23 23 23 23 22 21 21 20 20 20 19 19 20 20 20 21 22 23 24 24 25 25 25 25 25 25 26 26 26 26 26 25 25 24 23 23 24 24 23 23 23 23 24 24 24 24 23 24 24 24 25
29 28 27 26 25 24 23 22 21 22 26 29 30 30 29 29 29 28 27 28 29 29 27 26 25 23 23 23 24 25 24 24 24 23 23 22 22 22 22 21 21 20 20 20 20 19 19 19 19 19 20 21 22 23 23 23 24 24 24 24 25 25 25 25 25 25 25 25 24 23 23 24 24 23 23 23 23 23 23 23 23 22 22 23 23 24
29 28 27 25 25 24 22 21 23 24 25 27 28 29 29 29 29 27 25 27 29 28 27 25 23 22 23 24 25 25 24 23 23 23 22 21 21 21 21 21 21 20 20 20 20 20 19 19 19 19 20 20 21 22 22 22 22 22 23 23 23 23 23 23 23 23 24 24 24 23 23 23 22 23 23 22 22 22 22 22 22 21 21 22 22 23
29 28 27 24 24 25 22 21 23 22 22 24 27 29 30 29 30 29 26 26 28 29 28 27 24 22 24 25 25 25 24 22 22 22 21 21 20 20 20 20 20 20 20 19 19 19 19 18 19 19 19 19 19 20 20 21 21 21 21 21 21 21 21 20 21 21 22 23 23 22 21 21 21 21 22 22 21 22 22 21 21 22 22 22 21 21
29 29 28 25 23 24 22 21 22 21 22 26 28 29 30 29 29 29 25 23 25 26 25 26 26 24 25 25 23 24 24 23 21 21 20 20 20 20 19 19 20 19 19 19 18 18 18 18 19 19 19 19 19 18 19 19 20 19 19 19 19 19 19 19 19 19 20 21 21 20 20 19 19 20 21 21 21 21 21 20 20 21 21 21 20 20
28 28 27 24 22 23 22 22 22 23 25 28 29 29 30 30 29 26 22 21 24 25 24 24 24 23 23 23 23 23 24 23 21 19 19 20 20 20 19 19 19 19 19 18 18 18 18 18 18 18 18 18 18 17 17 18 18 18 18 18 18 18 18 18 18 18 19 20 20 20 19 19 19 19 20 20 20 20 20 20 20 19 19 19 19 19
26 26 26 24 23 23 22 21 22 25 27 28 29 29 29 29 27 23 21 22 25 25 24 24 23 22 22 22 23 23 22 22 21 20 20 21 21 20 19 19 19 19 19 18 18 18 18 18 18 18 18 17 17 17 17 17 17 17 17 18 18 17 17 17 17 17 18 19 19 19 19 19 19 19 19 19 19 19 19 19 19 19 18 18 18 18
24 24 25 24 23 23 23 22 22 24 26 28 28 29 28 26 23 22 23 25 25 24 24 24 25 25 23 21 22 23 22 21 22 22 22 22 21 20 20 19 19 19 19 19 18 18 18 18 18 18 18 18 17 17 17 17 17 17 17 17 17 17 17 17 17 17 17 18 18 18 18 18 18 18 18 18 18 18 18 18 18 18 18 18 18 18
25 24 23 24 25 24 23 22 22 22 25 27 28 27 27 25 24 25 25 25 25 26 26 26 26 26 25 21 19 21 22 22 23 23 22 22 22 21 21 20 19 19 19 19 19 19 19 18 18 18 18 18 18 18 17 17 17 17 17 17 17 17 17 17 17 17 17 17 17 17 18 18 18 18 17 18 18 18 17 17 17 17 17 17 17 17
27 25 23 24 26 24 21 22 23 23 26 28 27 27 27 26 26 26 26 26 26 27 27 26 26 25 25 23 20 19 21 22 23 23 22 21 22 22 21 21 21 20 20 19 19 19 19 19 18 18 18 18 18 18 17 17 17 17 17 17 17 18 18 18 18 17 17 17 17 17 17 17 17 18 17 17 18 18 17 17 17 18 17 17 17 17
26 26 24 25 27 26 25 25 26 26 27 28 28 27 27 26 26 27 26 27 27 27 26 26 26 25 25 24 22 21 22 21 21 21 20 21 22 23 22 22 21 20 20 20 20 20 19 19 19 19 18 18 18 17 17 17 18 18 18 18 18 18 18 18 18 18 18 18 18 18 17 17 18 18 17 17 18 18 18 18 18 18 18 18 18 18
26 27 26 26 27 27 27 28 28 27 27 27 28 27 26 26 27 27 26 26 27 26 26 25 24 24 24 23 23 21 20 19 19 19 19 19 21 22 22 22 21 21 21 20 20 20 19 19 19 19 19 19 18 18 18 18 18 18 18 18 18 18 18 18 18 18 18 19 19 19 19 19 19 18 18 18 18 18 18 18 18 18 18 18 18 18
28 28 27 27 27 26 25 27 28 27 27 27 27 27 26 26 26 26 26 26 26 25 25 23 22 23 23 22 21 19 19 19 18 18 18 19 19 21 22 21 21 21 21 21 20 20 20 19 19 19 19 19 19 19 19 19 19 19 19 19 19 18 18 18 18 18 18 18 19 19 19 20 20 20 20 19 19 19 19 19 19 19 18 19 19 19
27 27 27 27 27 26 26 27 27 27 26 26 26 26 26 26 25 25 25 25 25 25 24 22 21 22 22 21 20 19 19 19 19 18 19 19 19 20 21 21 20 20 21 20 20 20 20 20 20 20 20 20 20 20 20 20 19 19 19 19 19 19 19 19 19 19 19 19 19 19 19 20 20 20 20 20 19 19 19 19 19 19 18 18 19 19
26 26 26 27 27 27 27 27 26 26 26 25 25 26 26 25 25 24 24 24 24 24 23 21 21 21 21 21 21 21 20 20 20 19 19 19 19 20 20 20 20 20 20 20 20 20 20 20 20 20 20 20 20 20 20 20 20 20 20 20 20 20 20 20 20 21 21 21 20 20 20 20 20 20 19 19 18 18 18 18 18 18 18 18 18 19
26 26 27 27 26 26 26 26 26 26 24 24 25 25 24 24 24 24 23 24 24 24 23 20 19 20 21 21 21 21 21 20 20 20 19 19 19 19 20 20 20 20 20 20 20 19 19 19 20 20 20 20 20 20 20 20 20 20 20 20 20 20 20 21 21 21 21 21 21 20 20 20 19 19 19 19 18 18 17 17 18 18 18 18 18 18
27 27 27 27 26 26 27 26 26 26 24 24 24 25 24 24 24 23 23 23 23 23 22 20 17 18 19 20 21 21 20 20 20 20 19 19 18 18 19 19 20 20 20 20 20 20 20 20 20 20 20 20 20 20 20 20 20 20 20 20 20 20 21 21 21 21 21 21 20 20 20 20 19 19 19 19 18 18 17 17 17 17 18 17 17 17
Height
765 778 781 779 774 763 760 760 763 766 770 775 776 777 780 786 793 791 788 782 779 793 796 787 790 792 791 792 791 791 797 798 794 799 801 787 783 784 783 784 787 789 789 788 790 793 796 799 801 805 808 811 814 816 819 821 823 824 826 827 829 830 832 833 835 836 836 838 839 839 840 841 841 842 843 843 844 845 846 848 849 850 850 851 852 852
769 783 778 766 761 757 757 759 763 767 768 772 773 772 773 778 789 789 784 779 776 791 797 785 786 792 789 789 790 790 796 799 794 799 802 791 784 784 783 785 787 786 787 789 790 792 795 798 801 804 807 810 813 816 819 820 822 824 826 827 829 830 832 833 834 836 836 837 839 839 840 840 841 842 843 844 844 845 846 848 849 850 851 851 852 853
782 783 768 755 755 759 764 764 766 769 770 771 769 769 772 775 786 789 783 780 777 786 796 790 787 790 785 785 788 789 792 794 794 797 803 799 790 785 784 785 787 787 788 790 790 791 794 796 799 803 806 809 812 815 818 820 822 824 825 827 829 830 831 833 834 835 837 838 838 839 840 841 841 842 843 844 844 845 847 848 849 850 851 851 852 853
784 773 757 750 758 767 770 768 768 771 769 769 769 770 771 772 782 791 788 783 777 782 792 791 788 787 786 787 787 788 790 791 794 797 800 802 797 788 782 783 786 787 789 790 788 789 792 795 798 801 805 808 811 814 816 819 821 823 825 827 828 830 831 833 835 836 837 838 839 840 841 841 842 842 843 844 845 846 847 848 849 850 851 851 852 853
772 760 751 755 764 770 773 771 770 774 772 766 765 768 769 768 772 779 784 782 779 782 786 792 800 794 787 792 791 788 791 793 794 796 796 796 796 790 782 780 784 785 787 788 788 789 790 794 797 800 803 806 809 813 814 817 819 821 824 827 828 830 832 833 834 836 837 838 840 840 841 842 842 843 844 845 846 846 847 848 848 850 851 851 852 852
767 754 756 766 769 770 774 774 769 772 775 767 760 758 760 764 766 771 779 784 792 796 787 794 815 806 786 790 791 788 794 798 794 794 794 792 794 796 788 781 782 784 785 785 786 788 789 792 796 799 802 804 807 811 813 815 817 820 823 826 828 829 831 833 834 836 837 838 840 840 841 842 843 843 844 844 845 846 846 847 848 849 850 851 851 852
763 754 759 770 771 771 775 774 767 766 776 774 758 749 751 759 768 774 782 791 799 801 790 790 808 809 794 789 787 786 793 798 796 793 791 791 794 799 793 782 780 782 783 785 785 786 788 791 794 797 800 802 805 808 811 814 815 819 822 824 827 829 831 832 834 836 837 838 839 840 841 841 842 842 843 844 844 845 845 846 848 849 850 850 851 851
762 761 767 770 771 774 774 773 766 762 775 774 755 752 757 763 772 777 784 793 791 793 798 794 799 805 800 791 783 785 795 799 799 796 790 790 790 794 793 782 778 780 781 784 785 785 787 790 792 795 798 800 802 805 809 812 814 818 821 823 826 828 830 831 833 835 836 838 839 840 840 840 842 842 843 844 844 845 845 846 847 848 849 850 850 851
760 767 770 769 773 775 770 765 757 758 773 766 750 755 762 765 772 775 785 791 782 792 807 797 793 803 804 798 787 785 796 801 801 796 789 787 787 788 791 784 776 777 779 780 783 784 785 788 790 793 796 798 800 803 806 810 813 816 819 822 825 827 829 830 832 834 835 837 838 839 840 840 841 842 843 844 844 845 846 846 847 847 848 850 850 851
760 761 761 765 772 769 761 755 750 757 767 757 749 755 761 766 771 777 788 787 782 799 806 789 786 798 802 800 794 792 796 796 795 793 785 782 783 783 786 784 777 775 777 777 779 782 783 786 789 791 794 797 798 801 804 808 811 815 818 821 824 826 828 830 831 833 835 836 838 839 840 840 841 842 843 844 844 845 846 846 847 848 848 849 849 850
757 755 756 762 764 758 754 753 751 757 759 754 755 760 765 768 770 778 782 782 795 805 793 780 786 799 803 795 787 787 784 779 784 789 785 780 780 781 782 780 776 773 775 776 777 780 782 785 788 790 792 795 797 800 803 806 809 813 816 819 822 824 826 829 830 832 834 835 837 838 839 840 841 842 842 843 844 845 846 846 846 847 848 848 849 849
757 760 761 758 755 753 757 759 755 755 755 758 763 768 775 774 773 785 784 787 810 809 787 779 782 793 802 792 780 776 767 764 773 782 783 780 780 780 779 777 775 772 773 774 776 779 781 783 786 788 791 793 796 798 801 803 806 810 814 817 821 823 825 827 829 831 833 834 836 837 838 840 840 841 842 843 844 844 845 846 846 847 848 848 848 849
758 760 756 753 753 753 763 768 760 757 758 763 768 773 787 792 797 811 805 798 806 800 789 788 786 788 787 776 770 767 761 759 766 771 774 775 777 777 775 775 775 771 770 772 774 777 779 782 784 786 790 792 794 797 799 802 805 808 812 816 819 822 824 826 828 830 832 833 835 836 837 839 840 841 842 842 843 844 844 845 845 846 847 847 848 848
763 762 755 757 758 753 762 771 769 766 765 769 771 776 791 801 815 824 811 800 799 788 784 790 795 794 780 763 757 757 754 753 758 764 767 769 772 774 771 772 775 769 767 769 772 775 778 779 782 785 789 791 793 796 798 800 803 806 810 814 817 820 823 825 826 828 830 832 833 835 836 837 839 840 841 842 842 843 843 844 844 845 845 846 846 847
774 779 766 762 761 756 760 763 762 762 765 767 762 768 784 789 800 809 800 798 800 790 786 793 799 795 783 767 752 746 746 746 754 760 763 766 766 768 770 772 775 769 764 767 769 772 775 777 781 783 787 790 792 795 797 799 802 805 808 812 815 818 821 823 825 827 829 830 832 833 835 836 837 838 839 841 841 841 842 843 843 844 844 844 845 846
775 777 761 756 755 755 760 754 751 762 775 772 758 764 779 775 775 784 780 779 789 801 804 802 794 779 771 762 748 745 746 745 754 759 762 767 766 768 774 775 775 769 762 765 768 770 773 775 778 781 784 788 790 793 796 798 801 804 807 810 813 816 819 821 823 825 827 829 830 832 833 835 836 837 838 839 840 840 841 841 842 842 843 843 843 844
775 773 755 754 754 751 757 753 749 764 778 778 777 776 769 761 763 776 781 772 783 812 811 793 784 774 773 775 759 753 754 751 757 762 762 767 767 770 776 776 776 772 764 763 766 768 771 773 776 779 782 786 789 792 795 797 800 803 806 809 812 815 817 820 822 824 825 827 829 830 832 833 834 836 836 837 838 839 839 840 841 841 841 842 843 843
772 776 756 753 761 752 750 754 751 754 762 775 794 786 765 768 770 775 795 799 801 817 804 786 787 783 791 799 779 767 770 764 760 762 763 766 768 770 771 771 774 774 766 761 763 766 769 771 774 777 781 784 787 790 793 796 799 802 805 807 810 813 815 817 819 821 823 825 827 829 830 832 833 834 835 835 836 837 838 838 839 840 840 841 842 842
763 779 764 750 761 756 747 759 763 757 754 762 779 775 771 796 799 786 798 808 808 814 806 793 785 774 783 792 782 779 783 776 768 764 763 765 767 769 768 768 774 777 769 761 762 765 766 770 773 776 779 782 785 789 792 795 798 801 804 806 809 811 813 815 817 819 821 823 825 827 828 830 831 832 833 834 835 835 836 836 837 838 839 839 840 841
759 780 777 753 751 755 755 766 774 774 768 760 764 766 769 787 798 797 803 805 803 805 809 806 791 778 780 779 776 781 779 776 779 774 765 761 763 766 765 766 773 779 772 762 762 765 765 768 771 774 778 781 784 787 790 794 796 798 802 804 807 809 811 813 814 816 819 821 822 824 826 828 829 830 831 832 833 833 834 835 835 836 837 838 839 839
762 776 782 762 750 759 767 770 773 783 789 780 773 776 776 773 777 791 804 804 797 798 809 815 804 789 780 771 771 778 775 773 778 778 770 759 756 761 762 762 769 775 772 764 762 763 764 766 769 772 776 779 782 786 788 791 794 796 799 802 804 807 808 810 812 814 817 818 820 822 823 825 826 828 829 830 831 832 833 833 834 834 835 836 837 838
766 772 779 772 763 766 768 763 761 769 777 776 773 774 775 774 783 805 815 796 778 783 793 802 804 794 780 771 769 773 778 774 768 772 774 762 753 757 761 761 765 769 767 763 761 761 763 764 767 771 774 777 780 783 786 789 791 794 796 799 802 804 806 808 810 813 815 817 819 820 821 823 824 826 827 828 829 830 831 832 832 833 834 834 836 836
765 773 781 779 769 762 757 755 758 762 765 767 769 770 771 773 786 814 826 800 775 775 774 777 792 791 777 769 767 771 778 773 763 763 771 765 753 753 759 761 764 765 764 763 761 760 761 763 766 769 772 776 778 780 784 787 790 793 795 797 800 802 804 807 808 811 814 816 817 819 820 821 822 824 825 826 827 828 829 830 831 832 833 833 834 835
769 777 786 786 773 757 750 753 757 760 766 771 771 773 778 780 781 792 808 804 786 777 774 780 793 790 776 766 764 768 770 766 762 760 764 764 755 752 758 761 764 766 765 764 762 759 762 765 766 769 771 773 776 779 782 785 788 791 793 796 798 800 803 805 807 810 812 814 816 817 819 820 821 822 823 824 825 826 827 828 829 831 832 832 832 833
777 781 787 796 794 779 772 775 774 771 774 775 775 782 789 793 792 789 792 797 792 778 773 785 796 793 783 770 763 768 768 763 763 761 761 763 759 757 760 760 764 768 767 766 763 761 764 766 766 769 771 773 775 778 781 783 787 790 792 794 797 799 802 804 806 808 810 812 814 815 817 818 820 820 822 823 824 824 826 826 827 828 829 831 831 831
777 780 783 798 807 803 798 796 789 787 786 778 778 789 792 790 792 792 788 791 794 782 772 782 794 793 782 769 766 772 771 764 763 764 763 763 762 760 761 762 765 767 768 768 765 763 763 764 765 767 769 772 774 776 779 782 785 789 791 793 795 798 800 802 804 806 808 811 812 814 815 816 818 819 820 822 823 823 824 825 825 826 827 829 830 830
778 779 779 788 796 796 793 785 776 779 786 782 778 784 784 776 776 786 793 794 789 783 782 785 788 785 778 773 775 777 772 765 766 768 767 765 764 762 761 763 765 767 769 768 767 766 764 762 763 765 767 770 773 776 779 781 784 788 790 791 793 796 798 801 803 804 807 809 810 812 813 814 815 817 818 820 822 823 823 824 824 824 825 826 828 829
782 783 775 776 780 779 775 771 768 771 779 780 777 777 776 773 774 786 799 801 792 789 793 789 782 780 776 772 776 777 774 773 773 772 770 767 766 764 762 764 766 768 769 768 767 767 765 763 762 763 767 769 771 776 778 780 783 786 788 789 791 793 796 798 800 802 804 807 809 810 811 812 813 815 817 818 820 822 823 823 824 823 824 825 826 827
783 785 773 768 772 769 765 763 765 770 776 778 777 776 775 774 777 781 788 796 797 795 792 786 785 785 776 770 773 772 772 777 776 770 768 767 765 765 765 766 767 768 770 770 769 768 768 767 763 762 766 768 770 774 776 778 782 784 786 788 789 791 794 796 798 800 802 805 807 808 809 811 812 813 816 817 819 822 823 823 824 824 824 824 825 825
780 784 773 770 773 769 765 763 762 768 776 779 779 777 774 773 775 776 777 781 788 793 787 780 784 785 774 769 769 766 769 774 770 766 767 768 767 767 768 768 768 770 771 772 771 770 770 769 764 762 765 767 769 772 774 776 779 781 784 786 788 790 792 794 796 798 800 803 804 806 808 809 811 812 814 816 818 819 821 822 823 823 824 824 824 825
778 784 774 773 780 776 766 762 762 765 770 776 778 774 771 772 772 773 774 771 775 784 783 778 783 786 777 770 764 761 768 773 769 768 770 769 768 768 768 769 770 771 772 772 774 773 770 769 768 766 764 766 768 770 773 776 777 780 783 784 787 789 790 793 794 796 798 800 802 804 806 807 809 810 812 813 816 817 818 819 820 821 823 823 823 824
777 782 775 776 787 782 765 760 762 762 765 771 772 769 769 771 771 769 768 769 776 785 786 783 784 780 775 775 769 761 768 776 772 770 771 770 769 769 769 770 769 770 772 774 775 773 770 772 774 770 764 764 767 769 772 775 777 779 782 783 786 788 790 792 793 795 796 797 800 802 803 804 806 808 810 811 813 815 817 818 819 820 821 821 822 823
774 780 777 777 787 783 765 760 765 770 781 783 773 766 767 767 767 767 764 766 775 783 785 787 784 776 774 780 776 766 770 776 772 770 772 772 770 770 771 770 768 768 770 774 776 774 773 775 777 773 769 767 768 770 773 775 777 780 781 784 786 787 789 791 792 794 795 795 797 799 799 801 803 806 808 809 811 813 815 816 818 818 819 820 821 822
771 779 779 776 786 786 767 762 776 790 798 791 771 764 767 766 767 772 770 767 768 772 777 781 780 777 779 783 778 770 771 773 771 770 771 771 771 772 772 771 770 766 766 770 774 774 774 775 776 775 774 772 771 772 774 776 778 780 782 784 785 787 788 790 791 792 793 794 795 797 798 799 801 804 806 808 810 812 813 815 817 818 819 820 820 821
771 777 779 777 783 784 769 773 798 806 792 775 763 760 762 763 765 768 768 764 762 764 770 774 774 775 781 781 774 769 770 770 770 771 770 769 771 771 772 773 773 769 765 767 772 773 773 774 776 776 776 776 776 775 776 777 779 781 782 784 785 786 787 789 790 791 792 793 794 796 797 797 799 802 804 806 809 810 811 813 815 816 818 818 819 820
773 776 777 777 782 785 781 786 800 794 773 763 762 760 760 763 765 768 771 766 759 761 767 771 775 778 780 777 771 768 770 769 770 771 772 771 771 772 773 774 775 774 770 769 771 773 772 774 777 778 777 778 778 778 778 779 780 782 784 784 785 786 787 789 790 790 791 792 793 794 795 796 798 801 803 806 808 809 811 812 813 815 817 818 819 819
771 776 777 780 782 784 787 785 781 777 772 768 763 760 762 764 764 769 776 770 758 759 765 771 779 784 779 774 770 769 771 775 777 776 775 775 774 774 775 774 774 776 773 771 773 774 773 775 779 778 777 777 779 779 779 780 781 783 785 786 786 787 788 789 790 790 790 791 792 793 795 796 798 801 803 805 807 809 811 812 813 815 816 817 818 819
768 773 778 785 781 778 788 792 788 789 787 776 765 760 757 759 758 762 773 773 760 756 760 765 774 780 775 770 770 769 773 783 788 783 779 780 778 777 778 776 775 776 775 774 776 776 775 777 778 776 775 777 779 781 781 782 783 784 786 788 788 788 789 790 790 791 791 791 792 793 795 797 798 800 803 805 806 808 810 810 812 813 814 814 816 819
768 769 774 784 784 780 791 799 796 792 783 770 765 760 754 756 757 760 775 781 771 764 766 767 769 772 770 770 773 773 776 786 792 788 783 784 782 779 780 779 777 778 777 777 778 777 775 776 776 776 777 779 781 782 783 784 784 785 787 789 790 790 790 791 791 791 792 792 793 794 796 799 800 802 804 805 806 807 808 809 811 812 812 813 815 818
773 772 774 783 786 782 787 791 785 777 769 762 761 759 754 754 758 772 791 792 776 770 772 771 772 774 773 773 774 775 777 783 788 787 784 784 783 781 781 781 780 781 780 779 779 778 775 774 776 777 780 783 784 784 784 785 786 788 790 791 792 792 793 793 792 792 792 793 794 796 798 801 803 804 805 804 805 807 807 808 809 811 812 813 815 817
777 775 774 778 779 775 779 782 775 767 763 761 760 758 755 758 768 784 794 786 774 772 772 771 774 775 774 774 774 775 778 778 779 781 781 781 783 783 782 782 782 782 782 782 781 780 778 778 780 781 784 787 788 786 785 785 787 790 793 793 793 794 794 794 793 793 793 793 794 796 799 801 804 805 805 805 806 807 808 808 809 810 812 814 815 816
780 778 776 776 775 772 772 773 772 770 765 760 759 757 758 770 783 785 779 771 770 772 771 769 768 766 769 776 776 774 776 775 774 776 779 780 782 783 783 784 784 784 784 784 784 784 784 784 786 787 788 790 790 789 787 786 788 793 795 795 796 797 797 796 796 795 795 796 796 798 800 802 804 805 807 808 808 810 811 811 812 812 814 815 816 816
774 778 778 772 769 771 774 776 783 785 773 760 761 765 766 774 780 773 767 768 769 766 765 766 764 761 765 775 780 777 775 775 775 775 778 780 781 783 784 785 785 786 786 786 787 786 786 787 789 789 790 790 790 790 789 789 792 796 798 798 800 801 800 799 799 799 799 799 800 802 803 805 805 806 810 812 812 812 814 814 815 816 816 817 818 819
769 773 775 768 764 770 777 780 783 781 768 758 763 768 767 767 766 763 765 767 765 762 762 764 764 763 764 771 780 782 779 777 777 778 780 783 782 783 785 785 786 787 788 788 789 788 788 789 790 791 791 791 791 792 793 794 797 799 800 802 803 803 802 802 802 802 802 803 805 806 807 808 809 810 813 815 816 816 816 817 817 818 819 820 822 824
770 768 771 770 766 767 769 769 768 766 760 757 760 762 762 761 760 760 763 762 760 761 762 762 764 766 765 767 774 778 779 781 782 783 785 786 784 783 785 786 787 789 790 790 791 791 791 791 791 793 794 794 795 797 799 800 802 803 803 805 805 805 805 805 805 805 806 807 809 810 811 811 812 814 816 817 818 818 818 819 819 820 822 823 824 825
764 761 767 769 765 762 761 759 759 760 760 758 757 758 761 761 759 758 761 762 761 761 762 763 766 768 768 769 773 778 783 785 786 788 789 789 788 786 787 789 789 791 792 792 793 794 794 794 794 795 796 798 800 802 803 805 806 806 806 807 807 807 807 807 807 808 809 811 812 813 814 815 816 818 819 820 821 821 821 821 821 822 824 824 825 825
758 758 763 766 766 769 769 763 758 761 762 760 759 759 760 761 760 759 761 762 761 761 763 766 769 769 770 772 777 783 787 787 787 788 789 791 793 793 793 794 794 793 794 795 796 796 796 796 797 798 799 801 803 804 806 807 808 808 809 810 810 810 810 810 810 811 813 814 815 816 817 818 819 821 822 823 823 823 823 824 824 825 826 826 826 826
760 760 763 764 764 767 768 762 759 760 760 759 761 760 759 760 761 761 761 761 761 763 764 767 769 770 771 774 778 783 785 787 789 789 789 793 797 797 796 797 797 797 797 797 798 799 799 799 799 800 801 802 804 807 808 809 810 811 811 812 813 813 813 813 814 815 816 817 818 819 820 821 822 823 824 825 825 825 825 826 826 827 827 827 827 827
761 764 764 763 763 763 761 760 760 762 762 762 761 760 760 761 762 762 762 762 762 763 766 770 772 772 773 775 777 779 783 786 787 789 790 795 799 800 798 798 798 798 798 799 800 801 802 802 802 801 802 804 806 808 809 810 811 812 813 814 815 815 815 816 816 817 818 818 820 821 822 823 824 825 826 827 827 827 827 828 828 829 829 829 829 829
759 764 760 760 766 767 763 761 762 765 770 769 764 761 762 762 762 764 765 764 764 764 767 773 777 777 776 777 777 779 782 784 786 788 790 794 799 802 802 802 801 800 799 800 801 803 805 806 804 804 805 807 808 810 811 812 813 814 814 816 817 817 818 818 818 818 819 820 821 823 824 825 826 827 828 829 829 830 830 830 830 831 831 831 832 832
756 758 756 758 764 763 759 758 758 762 768 768 763 762 763 761 762 765 766 765 767 766 767 774 780 781 780 780 780 781 783 784 787 790 791 794 798 802 805 807 806 802 801 802 803 805 807 807 807 807 808 809 810 811 812 813 814 815 816 817 818 819 820 820 820 820 821 822 824 825 826 827 828 829 830 831 832 833 833 833 834 833 833 834 834 834
Wind_Speed
6 7 7 7 9 8 9 9 5 4 3 7 8 5 4 2 1 2 1 3 4 4 3 4 6 8 9 9 8 8 6 9 8 4 9 12 12 11 12 12 12 12 11 13 16 17 16 17 16 16 15 15 15 15 15 15 15 15 14 14 14 14 14 13 13 11 11 11 9 9 10 8 8 7 7 7 6 6 7 8 7 6 6 5 5 4
5 7 8 9 8 4 2 2 4 8 7 8 9 7 5 2 3 2 2 1 2 3 3 3 4 7 9 9 8 9 9 10 10 8 10 11 13 11 11 13 13 11 11 12 15 16 17 17 17 17 16 16 16 16 16 16 15 15 15 15 14 14 14 13 12 11 10 9 8 8 8 8 8 7 7 7 6 7 7 8 6 6 6 5 4 4
5 8 11 6 1 2 3 3 6 9 10 9 8 7 5 2 4 4 2 1 3 1 2 5 3 5 7 8 9 9 10 9 5 5 5 9 9 12 12 12 13 12 13 14 14 16 18 18 18 17 16 17 16 16 17 16 16 16 15 15 14 14 14 13 12 11 9 8 7 7 7 6 7 7 7 7 6 6 7 8 6 5 6 5 5 5
5 6 9 3 4 3 7 7 9 9 9 9 7 8 5 7 4 2 2 3 4 3 4 6 3 3 5 6 8 9 9 6 3 7 7 9 8 10 13 12 13 14 14 14 14 15 17 18 18 17 17 17 16 16 17 17 17 16 15 15 14 14 14 13 13 11 9 9 7 6 5 5 5 6 6 6 6 6 7 8 7 6 6 5 5 5
5 3 3 3 4 6 10 9 10 9 7 8 9 9 6 5 4 0 2 3 5 4 3 4 4 3 6 7 7 8 7 4 3 6 10 8 6 10 13 14 13 14 13 14 15 14 16 18 18 18 18 18 17 17 17 18 18 16 16 16 15 14 14 13 13 12 10 10 8 6 6 5 5 6 6 7 7 7 7 7 7 7 7 6 6 5
8 2 4 2 4 7 10 9 9 8 7 9 9 10 9 8 7 1 2 4 5 4 1 2 4 2 6 8 8 8 8 6 6 7 10 9 3 9 12 14 14 14 13 13 14 14 15 18 18 18 19 19 18 18 17 18 18 17 17 17 15 14 14 13 14 13 11 11 10 8 8 7 7 7 8 8 8 8 7 7 7 7 8 7 6 6
6 2 5 7 8 8 10 9 9 8 8 7 4 7 8 5 4 3 4 6 6 4 2 2 5 2 3 7 8 10 11 9 8 9 11 10 7 7 12 13 14 14 14 13 13 15 15 17 18 19 19 19 19 19 18 18 18 18 18 18 17 15 14 14 14 13 11 11 10 9 9 8 8 8 7 7 7 7 6 7 8 6 7 7 6 6
4 2 3 8 9 9 9 7 9 9 9 7 1 4 6 2 4 6 5 8 6 3 1 4 8 6 3 4 8 11 11 11 10 11 13 11 11 11 12 13 15 15 14 13 13 14 15 17 18 19 19 19 19 20 19 18 18 18 19 19 17 15 14 14 15 14 12 11 11 10 9 8 7 7 7 6 6 5 5 6 7 6 7 7 5 6
5 7 5 9 9 8 8 7 8 9 10 9 3 3 6 6 8 6 5 9 7 4 5 6 9 8 2 2 7 11 10 11 12 14 15 14 14 14 12 15 15 15 15 15 14 14 15 17 19 19 19 19 19 20 20 19 19 18 19 19 18 16 15 14 15 16 13 11 11 10 9 7 7 6 6 7 6 5 5 5 5 4 5 6 6 5
2 4 3 6 8 6 7 7 7 6 7 10 9 6 6 7 8 6 7 9 7 7 9 6 7 6 1 5 7 9 9 11 12 13 14 15 15 15 15 16 15 15 14 14 14 14 16 18 18 19 20 19 19 19 20 19 19 19 19 20 19 17 16 15 16 16 14 12 11 10 10 8 7 7 6 6 6 5 5 5 5 4 4 5 6 6
2 3 2 6 8 7 5 4 3 5 9 11 10 7 8 9 8 7 7 7 7 9 9 5 7 6 5 4 6 7 9 12 12 10 12 15 15 15 15 16 15 15 14 14 14 15 17 18 18 19 19 19 19 19 20 20 20 20 20 20 20 18 17 16 16 17 16 14 12 11 11 10 9 7 6 6 5 6 6 6 6 6 5 5 6 7
7 8 5 5 7 7 6 6 5 6 10 11 8 7 8 8 7 6 7 6 8 8 5 4 10 10 8 1 4 8 9 12 13 12 14 16 17 16 15 15 15 14 15 14 14 14 16 17 18 19 18 19 20 20 20 20 20 20 20 20 20 19 18 17 17 17 16 15 14 12 12 11 10 8 6 6 6 6 7 7 6 6 6 6 6 6
8 8 6 6 6 6 7 7 6 7 7 7 7 7 7 6 5 6 6 7 8 6 1 3 5 8 6 2 6 10 10 11 13 13 14 16 17 17 17 15 14 14 16 15 14 14 14 14 16 18 18 18 18 19 20 20 20 20 20 21 21 20 19 18 17 17 17 16 15 13 13 12 10 9 7 7 7 7 7 7 7 7 7 7 7 7
5 7 6 5 6 6 8 8 5 4 5 6 7 7 6 6 6 7 7 7 8 7 5 1 7 7 4 3 5 8 9 11 13 13 13 14 17 17 16 15 14 16 17 15 14 14 13 14 17 18 19 18 18 19 20 20 20 20 20 21 21 20 19 18 18 18 17 17 15 14 14 13 12 11 9 9 8 9 8 8 8 8 8 8 8 8
2 4 6 3 3 5 8 9 8 6 4 6 7 7 7 7 7 7 6 6 7 5 3 3 3 5 2 2 3 4 7 10 11 13 13 12 13 14 14 14 16 18 17 15 15 15 15 17 19 19 19 19 18 19 19 19 20 19 19 21 21 21 20 19 18 18 18 17 16 15 15 14 13 12 11 11 9 9 9 9 9 8 7 7 7 8
6 2 6 2 1 2 7 8 6 8 5 5 7 8 8 7 8 8 8 7 5 5 2 1 4 3 2 2 1 1 6 10 11 13 15 12 10 10 10 10 13 16 16 15 15 15 16 19 20 20 20 19 19 19 19 19 20 19 19 20 21 21 21 20 19 19 18 18 16 16 16 15 14 13 12 12 10 10 10 9 9 8 8 7 6 7
5 1 7 5 4 4 5 5 4 6 5 2 6 7 4 7 10 9 8 7 5 5 5 4 7 3 2 2 2 2 3 9 11 12 14 13 11 10 9 8 7 12 15 15 15 15 16 18 20 20 20 20 19 19 19 18 19 19 18 19 20 20 20 20 20 19 18 18 17 16 17 16 15 14 13 13 12 12 11 10 9 9 9 8 8 8
4 4 3 4 5 3 2 8 6 4 4 2 3 5 5 7 8 7 5 5 6 7 5 5 9 4 4 2 4 4 3 4 8 11 13 13 11 10 10 10 6 11 16 16 15 16 17 18 20 20 20 20 20 20 19 18 18 18 17 19 20 20 21 21 21 20 19 18 17 17 17 17 16 16 15 14 13 12 12 11 11 10 10 9 9 9
3 6 4 4 2 2 2 7 7 3 4 6 2 2 5 4 4 5 6 7 8 7 4 6 11 7 2 2 1 2 2 4 5 8 13 14 13 11 10 11 8 11 17 16 15 15 15 17 20 21 20 20 20 19 20 19 18 19 18 18 19 20 21 21 21 20 19 19 18 17 17 18 17 16 15 14 13 12 12 12 12 11 11 10 10 9
4 6 3 2 1 1 3 5 5 2 5 8 4 4 6 3 2 3 3 5 7 6 4 6 8 4 3 2 2 2 1 1 5 8 10 13 14 12 11 11 10 9 14 13 14 14 15 18 22 22 21 21 20 19 19 20 19 19 19 18 19 20 20 20 20 20 20 19 18 17 17 18 17 16 15 14 14 13 12 12 12 12 12 11 10 10
4 5 5 5 3 3 3 2 3 2 3 7 6 5 6 5 5 4 2 4 7 6 3 5 6 1 3 2 2 5 5 2 2 6 9 9 13 13 12 11 10 9 11 11 13 14 15 19 22 22 21 21 21 20 19 20 19 19 19 19 19 20 20 20 20 19 19 19 18 17 17 17 17 17 16 15 15 14 13 12 12 12 11 11 11 11
4 4 6 6 5 4 2 1 3 3 3 5 5 5 6 4 2 2 4 7 8 6 5 5 6 0 3 2 2 5 5 7 4 3 7 9 11 12 11 9 9 11 13 12 14 15 15 18 21 22 22 21 21 21 20 20 19 19 19 19 19 19 20 20 19 19 18 18 17 17 17 16 16 17 17 16 15 15 14 13 13 12 11 11 11 11
2 4 7 7 7 8 2 2 2 3 5 8 6 4 5 3 2 2 3 7 7 7 6 6 7 2 3 0 2 4 1 6 5 1 4 9 8 11 11 10 7 7 7 8 12 14 14 17 20 21 22 22 21 21 21 20 19 19 18 19 19 19 19 18 18 18 18 17 16 16 16 15 15 16 16 16 16 15 15 14 13 12 12 12 11 11
2 4 6 7 8 9 3 1 3 2 3 8 5 3 5 5 5 3 4 8 9 7 6 6 6 1 3 2 3 2 2 1 4 4 3 6 3 8 10 10 8 5 4 8 11 12 13 15 16 15 17 19 20 20 21 20 19 18 18 18 18 18 18 18 18 18 18 17 16 16 16 15 15 15 16 16 16 15 15 14 13 13 12 12 11 12
2 3 3 5 7 7 5 3 5 4 4 6 1 4 5 8 12 9 7 8 9 7 6 6 4 0 2 3 5 4 4 3 5 5 5 6 3 4 7 8 8 6 6 9 11 12 14 14 13 13 14 16 18 20 20 20 19 18 18 18 17 17 17 17 17 17 18 18 17 16 16 16 16 15 15 15 15 15 14 14 13 13 13 12 12 12
5 4 4 5 7 6 5 4 3 2 5 5 3 2 7 14 14 9 6 6 5 5 6 5 2 2 2 3 7 6 6 2 5 4 5 4 3 2 4 6 8 8 7 8 9 12 14 13 13 16 17 17 18 19 18 18 18 18 18 19 18 17 17 17 17 17 17 18 17 17 17 17 16 16 16 16 14 14 14 13 14 13 13 12 12 12
6 6 6 7 7 7 8 7 5 3 7 8 3 4 11 12 6 6 5 5 4 5 4 2 2 4 3 4 7 7 6 3 5 4 3 2 1 1 3 4 6 7 5 4 5 7 11 14 15 16 18 19 18 18 17 17 17 17 19 20 20 19 19 19 19 18 18 18 17 17 17 17 17 16 16 15 14 14 13 13 13 13 13 12 12 13
6 7 8 10 9 10 11 8 6 6 7 10 9 8 11 8 5 5 4 7 10 8 3 1 3 6 1 4 3 6 4 4 5 3 2 2 2 2 3 4 5 6 5 4 4 4 8 12 13 14 17 18 18 18 18 18 19 19 19 19 19 19 19 19 20 19 19 19 18 17 17 17 16 16 15 14 14 14 13 13 12 12 12 12 13 13
6 8 9 10 8 9 11 7 6 5 4 7 10 10 9 8 8 8 5 5 10 10 5 3 4 8 4 2 3 6 1 3 0 1 1 2 3 3 3 4 4 5 4 4 5 5 6 10 10 12 15 16 17 17 18 17 18 18 17 17 17 18 18 18 19 19 19 18 18 17 16 16 15 14 13 12 11 10 11 11 12 11 11 11 12 12
4 6 8 10 9 9 11 8 6 6 5 5 9 11 11 10 10 10 8 8 10 9 8 5 4 8 7 3 6 4 4 4 3 2 2 2 2 3 3 3 2 2 3 3 6 6 7 8 8 10 15 16 16 16 16 15 16 16 16 16 16 17 17 17 17 17 18 18 18 16 15 15 15 13 11 10 10 11 11 11 11 11 11 11 12 12
2 4 5 7 8 9 11 9 7 8 7 7 10 12 12 12 12 12 11 11 9 7 8 8 7 7 6 3 4 4 5 3 4 2 3 2 3 3 3 4 3 1 3 5 7 8 5 5 8 10 14 16 16 16 15 14 15 15 15 15 15 16 16 17 16 16 16 16 16 17 15 14 14 12 12 15 16 16 16 15 13 12 11 11 11 11
4 5 5 6 7 8 10 10 7 7 9 10 12 12 12 12 11 10 10 6 4 6 8 9 8 5 2 5 6 3 4 3 4 3 2 2 3 3 3 5 5 3 2 3 7 8 6 6 11 13 12 14 14 15 15 14 14 15 14 14 15 15 15 15 15 16 15 13 14 16 15 14 13 13 14 17 18 18 18 17 16 14 12 12 12 12
5 6 6 6 5 7 9 6 4 6 9 9 7 4 6 10 9 10 9 4 6 7 7 6 6 5 3 4 7 3 3 2 2 4 3 2 3 4 4 5 7 8 7 4 2 1 1 1 5 5 4 7 9 10 11 11 11 11 12 12 12 13 14 15 15 15 15 14 13 14 15 15 15 15 15 17 17 18 19 18 17 16 14 13 13 12
6 6 7 6 4 8 8 2 3 7 8 4 1 3 4 7 6 9 10 6 6 6 2 1 5 6 4 5 5 1 2 3 4 4 3 2 2 3 3 3 6 10 11 8 6 5 5 7 8 8 7 4 4 6 5 6 7 7 8 10 11 12 13 14 14 14 15 16 16 15 14 15 16 15 15 17 17 17 18 17 17 16 14 13 13 12
6 5 6 5 4 8 7 2 4 8 3 2 2 1 2 5 7 9 10 11 11 8 6 7 6 4 6 6 2 1 2 3 4 3 3 3 2 1 1 1 1 6 10 10 8 8 7 6 5 7 10 9 7 6 6 4 4 4 5 7 9 10 11 12 13 14 14 15 17 17 14 15 17 17 17 16 15 16 18 17 16 15 15 14 13 11
7 6 5 5 5 6 6 6 7 4 2 2 5 3 3 5 7 9 10 9 8 5 6 6 3 3 8 7 1 2 3 4 4 4 4 5 4 2 1 0 1 3 7 10 8 9 11 8 4 5 7 8 7 7 7 7 6 4 4 4 4 5 7 8 9 11 12 12 13 14 14 15 16 16 15 13 13 14 16 17 16 15 14 13 11 9
6 6 5 5 5 6 7 7 6 6 6 7 6 3 2 5 4 5 7 7 4 2 3 4 3 7 10 5 3 3 4 4 2 3 6 6 6 5 4 3 3 4 7 10 9 11 14 12 7 8 11 11 10 8 8 10 10 9 8 7 6 5 3 2 1 3 6 8 10 11 12 13 14 13 13 12 11 11 12 13 14 14 12 11 8 6
6 6 5 5 5 5 5 6 7 8 6 2 1 1 0 3 5 6 6 6 4 2 2 5 6 9 10 4 3 3 3 2 1 2 6 7 6 6 6 5 4 5 7 10 9 11 16 15 12 14 15 14 12 11 10 11 12 12 11 10 9 8 8 7 5 4 2 2 6 9 9 10 10 10 10 10 10 12 11 10 12 13 11 11 9 7
8 7 5 6 6 5 6 6 6 7 4 2 3 2 1 2 5 6 6 4 5 9 6 3 4 5 5 3 2 1 2 2 1 2 5 6 5 6 6 5 5 5 7 10 10 12 16 18 17 17 16 14 13 12 12 13 13 13 13 11 10 10 9 8 6 4 3 1 2 7 10 9 7 9 11 11 11 12 11 9 10 10 8 8 8 6
8 6 7 8 8 7 8 7 6 6 3 3 3 3 3 3 3 7 6 3 3 7 6 3 2 3 6 4 3 2 2 1 2 3 2 2 4 6 6 6 6 5 7 11 11 12 17 20 19 18 16 14 12 12 14 16 17 16 15 13 13 13 12 10 8 5 1 1 2 6 8 7 6 9 11 11 10 11 11 11 10 9 7 7 8 9
6 6 7 8 8 9 9 8 7 4 2 3 0 2 2 3 4 6 4 1 3 4 5 4 4 7 6 3 2 2 0 1 5 8 8 5 6 7 7 8 8 7 8 12 13 15 19 22 20 18 16 15 14 15 19 21 21 20 19 18 18 17 14 11 11 12 9 8 9 10 9 7 7 7 8 9 10 11 11 12 12 11 11 12 13 14
6 6 7 7 7 8 7 8 7 4 1 2 2 1 1 3 5 3 1 1 1 2 4 5 4 4 4 3 1 1 4 5 6 9 10 8 8 9 8 9 10 9 11 13 16 19 21 22 20 19 19 18 18 20 23 26 26 23 21 21 21 18 16 16 16 18 19 19 18 18 16 15 14 14 14 14 15 16 16 16 16 15 14 15 17 17
5 5 6 7 6 6 7 7 7 3 0 0 1 1 1 3 3 1 1 1 1 3 4 3 2 2 2 6 4 1 3 7 6 7 10 9 10 11 11 12 12 12 13 14 15 19 21 21 22 21 19 19 20 20 23 25 24 21 20 20 19 19 21 22 21 21 22 23 25 25 23 22 21 20 19 18 19 21 21 19 18 18 17 17 19 19
4 4 5 4 3 5 6 4 2 1 1 1 2 2 1 2 1 3 2 2 3 3 3 1 1 2 1 6 8 6 5 7 6 6 8 9 10 11 12 14 15 15 15 15 17 20 22 22 23 22 20 20 21 21 21 22 21 19 19 18 16 17 21 23 23 24 23 23 25 26 26 25 24 23 21 19 19 21 21 21 21 21 21 21 21 20
2 3 5 4 3 5 6 2 2 1 2 1 3 3 2 1 1 3 5 6 4 2 2 3 0 2 1 2 6 8 7 8 7 5 3 3 8 12 13 14 16 17 17 18 19 19 20 22 24 24 23 22 22 21 19 19 20 19 18 17 16 17 18 19 22 23 22 21 22 22 23 24 22 21 19 18 19 20 20 20 20 19 18 18 17 17
3 3 4 5 4 4 5 3 2 2 2 2 3 1 1 4 4 3 4 5 4 2 2 3 3 4 2 1 3 7 9 10 9 7 7 6 3 8 12 14 16 17 18 19 20 19 20 22 23 24 24 23 21 20 18 17 18 19 18 17 17 17 18 18 20 20 19 19 18 18 18 19 18 17 17 16 17 18 18 17 17 15 14 14 13 13
6 6 6 6 5 3 2 2 2 2 2 3 3 2 2 4 4 4 4 4 3 3 2 3 3 3 4 5 8 11 11 10 9 7 7 6 5 6 11 14 15 16 18 19 20 20 21 22 23 23 24 23 22 20 19 18 18 19 19 19 18 18 18 19 19 19 17 17 16 16 15 15 14 14 13 12 11 11 12 11 10 9 9 9 8 8
3 3 5 7 7 6 4 2 1 2 2 3 4 4 3 2 1 2 4 3 2 2 1 4 3 3 4 8 11 13 13 12 10 9 8 7 5 6 10 13 13 14 17 18 19 19 19 20 22 22 22 21 20 19 18 19 18 18 18 17 17 17 18 18 17 17 16 15 15 14 14 13 13 12 11 11 11 11 10 9 8 9 9 9 9 8
4 2 5 6 6 7 6 4 4 4 4 4 3 2 2 2 1 2 3 3 3 3 3 6 3 2 6 10 12 13 14 13 13 12 11 10 7 7 11 14 14 15 18 19 19 19 18 18 20 21 21 20 19 18 18 18 18 17 17 16 15 15 16 16 16 15 15 14 14 13 13 12 12 12 12 12 13 13 12 11 10 10 10 10 9 9
5 6 6 6 6 6 3 2 3 3 2 2 2 1 1 1 2 2 2 3 3 3 5 6 4 4 8 11 13 14 14 14 15 14 13 12 10 9 10 12 14 17 19 20 20 20 19 18 19 21 21 19 18 18 18 17 17 16 16 15 15 14 14 14 14 14 14 14 13 12 12 11 11 12 12 12 12 13 13 13 12 12 12 11 10 9
4 5 5 5 4 3 1 2 2 2 1 2 2 3 2 1 2 2 2 2 1 1 4 7 8 8 9 10 13 15 14 14 16 16 13 13 13 10 7 8 12 16 19 20 20 20 19 18 19 20 20 19 18 17 17 17 16 16 15 14 13 13 13 13 13 14 14 13 13 12 12 11 11 10 10 10 10 10 11 11 12 12 11 11 10 8
Wind_Direction
209 219 220 223 238 235 216 220 255 297 253 248 256 252 242 209 124 353 331 176 212 258 242 188 186 204 201 188 194 180 184 239 213 184 238 208 173 181 181 167 167 168 161 159 161 156 155 156 153 153 157 157 154 154 156 160 161 158 155 154 155 156 154 154 158 159 159 159 158 155 156 155 147 141 144 141 140 141 129 126 133 133 125 121 120 119
221 236 231 226 239 282 311 235 254 269 260 253 257 252 246 210 133 221 264 110 233 283 310 264 183 189 204 188 186 183 183 222 215 193 233 219 179 181 185 169 167 166 155 159 163 158 158 158 155 156 159 158 157 157 161 165 163 162 160 158 159 159 159 162 162 162 162 160 159 158 159 156 146 146 152 147 145 144 128 130 139 133 128 127 125 127
212 240 242 228 178 14 327 281 250 250 257 256 253 257 253 149 130 202 234 278 252 288 297 267 230 176 186 182 185 188 189 212 201 147 237 258 209 184 182 173 169 167 161 165 166 161 161 160 157 159 161 160 160 161 164 166 164 164 162 161 163 163 163 165 164 167 165 158 156 156 156 154 149 152 154 147 146 145 140 149 152 136 138 143 139 140
208 231 240 190 106 237 245 246 254 254 255 254 252 268 247 160 170 220 187 246 271 281 274 274 267 167 162 183 188 185 190 200 131 135 189 251 262 216 186 173 176 172 165 167 166 163 163 162 161 161 163 162 162 166 167 167 167 167 165 165 167 166 167 167 166 170 165 156 154 154 154 142 139 146 143 145 154 152 149 158 161 152 157 165 155 151
261 42 51 104 134 235 251 238 243 250 251 248 239 259 270 204 227 20 111 274 286 266 280 330 302 207 174 192 192 180 185 196 182 184 201 212 270 259 204 175 179 176 169 170 167 166 165 164 165 162 164 165 165 170 171 170 170 169 167 168 169 169 170 170 169 170 164 159 157 154 154 142 138 151 154 163 170 168 167 169 170 163 165 173 160 152
269 58 88 237 220 233 254 245 238 243 256 255 233 238 254 248 251 334 41 301 284 263 148 86 294 246 169 193 200 183 181 201 205 207 217 196 197 271 227 183 179 178 175 175 169 168 168 167 166 164 167 170 169 172 175 174 171 169 168 168 170 171 172 172 170 171 167 165 166 164 166 164 163 170 174 179 175 174 180 168 162 167 168 170 163 158
261 151 150 239 253 238 243 248 246 248 258 259 256 263 259 251 267 293 316 291 279 305 76 170 278 299 167 198 197 184 185 199 208 206 212 193 165 235 236 197 180 179 179 178 174 170 168 169 169 168 172 174 172 172 176 176 172 169 167 168 171 172 174 173 171 173 171 170 174 176 177 174 175 179 174 175 171 171 176 151 149 168 167 170 173 162
227 206 179 237 252 241 239 242 236 237 253 258 29 320 292 292 273 272 281 277 279 334 13 230 264 277 259 226 189 177 183 194 205 209 205 196 184 199 226 213 186 180 181 178 178 174 169 173 173 171 175 177 174 173 174 175 173 170 168 170 172 172 175 175 173 176 176 176 179 185 188 179 179 182 167 167 166 163 167 149 154 170 162 171 183 163
201 233 223 234 240 239 244 249 236 223 239 261 285 298 292 286 274 274 267 270 276 288 266 223 233 260 281 220 193 173 183 200 204 209 200 193 193 190 212 221 196 181 184 181 180 177 173 175 175 174 177 179 177 174 174 174 173 170 170 171 173 173 176 176 176 179 181 182 182 186 191 184 179 180 171 175 169 158 166 158 158 168 158 169 182 174
187 244 254 245 242 241 245 252 251 231 238 269 281 265 255 262 267 263 250 265 275 269 270 231 211 262 235 157 184 176 191 209 202 208 203 191 195 193 201 215 202 183 185 184 180 180 177 175 176 176 177 180 179 175 174 174 173 172 171 173 175 176 177 176 176 181 186 185 186 189 190 186 183 179 174 178 173 166 174 175 172 180 179 178 182 186
164 196 264 261 258 276 296 293 275 266 268 277 285 266 238 232 232 234 239 260 271 260 260 198 169 247 267 158 173 190 202 206 191 197 205 194 196 200 200 208 204 187 184 186 180 180 179 174 177 179 177 179 180 176 175 175 174 173 173 175 177 178 178 178 177 182 187 188 188 191 189 189 187 184 180 176 180 183 184 192 189 186 194 194 190 189
194 190 208 219 246 277 293 278 240 237 260 265 269 263 248 233 216 229 239 232 250 263 259 176 176 215 252 224 188 213 213 200 183 183 199 198 197 202 200 204 208 193 184 186 180 180 179 175 179 181 177 179 179 176 178 178 175 174 174 175 178 180 179 179 181 182 187 189 190 192 190 192 191 189 190 187 192 196 192 198 197 188 194 198 198 194
199 191 190 179 203 246 255 251 221 206 237 248 246 245 244 241 228 239 246 231 242 249 256 329 268 239 248 239 199 212 209 194 183 180 191 195 197 202 197 195 208 200 185 185 182 180 180 177 180 179 176 179 179 177 180 179 176 175 175 176 178 182 181 181 183 184 187 190 192 193 192 193 195 195 198 197 199 201 199 202 200 194 195 196 200 198
181 156 172 179 168 200 241 256 238 208 225 237 242 244 241 237 235 242 240 241 252 227 154 46 295 269 244 195 184 202 197 183 182 181 186 194 195 200 196 191 209 206 187 184 184 180 180 178 179 178 176 178 179 180 182 180 178 176 174 176 179 181 182 183 184 185 189 192 193 195 195 194 197 200 202 205 207 205 203 205 206 204 200 197 199 199
275 159 175 219 127 156 225 253 273 290 263 245 251 244 243 246 247 258 250 247 273 266 134 112 262 276 280 139 130 187 184 166 173 177 182 195 195 195 196 192 206 208 190 183 184 181 181 179 179 180 177 179 179 180 183 181 178 177 175 176 179 181 183 184 186 187 189 193 195 196 197 197 198 201 203 207 211 210 206 206 208 209 208 203 194 191
280 224 138 165 13 188 243 250 271 288 270 276 278 236 226 252 252 256 266 270 289 295 309 199 239 270 274 217 110 172 177 155 161 173 177 189 191 185 195 199 211 211 193 183 184 181 182 180 180 179 178 180 180 179 184 182 178 179 178 178 180 182 183 185 187 189 190 193 196 196 198 200 199 202 204 205 208 210 209 208 207 207 209 208 192 185
266 265 126 169 219 200 279 288 243 256 258 307 296 258 269 304 276 262 271 283 283 265 264 251 245 235 145 221 306 329 197 156 155 172 178 186 184 175 187 198 218 226 205 186 182 181 182 183 180 179 179 181 181 179 183 183 178 180 180 179 182 183 184 187 188 190 192 193 196 197 199 201 201 203 207 208 207 208 210 209 209 210 207 205 201 198
300 291 169 196 240 148 5 297 258 246 269 260 275 287 326 322 286 271 268 268 255 249 265 267 251 226 128 230 300 353 316 202 178 180 177 182 187 185 196 187 192 237 218 188 181 182 182 184 181 180 182 182 183 181 182 183 179 181 184 183 185 187 187 188 189 192 193 194 197 198 199 202 205 207 209 211 210 208 209 209 211 214 210 205 206 208
294 282 179 139 297 140 143 265 247 198 268 271 255 257 273 276 269 264 257 258 252 245 265 265 247 230 149 216 249 47 318 289 275 216 184 179 187 194 204 185 175 233 225 191 180 184 181 184 182 181 183 182 184 183 181 183 183 183 188 188 188 190 192 191 191 193 194 196 199 199 200 203 205 208 211 212 212 211 211 210 210 212 211 208 204 205
303 283 236 145 306 226 185 243 246 220 266 268 247 222 246 259 258 259 290 290 269 253 266 274 257 237 71 35 15 14 271 283 318 277 218 187 184 189 203 192 172 216 231 201 182 184 183 185 184 183 184 182 185 185 182 186 188 187 189 191 191 192 195 195 194 193 194 198 200 199 199 202 203 207 211 211 211 213 214 212 211 211 208 208 206 204
265 263 272 258 240 242 235 230 252 245 239 251 246 235 238 232 222 212 218 258 255 257 268 279 276 247 84 37 21 9 333 276 231 277 266 217 186 182 198 194 166 188 228 215 188 184 186 187 185 183 185 184 185 186 186 189 192 190 189 191 194 195 196 198 197 194 194 198 200 200 201 201 202 205 209 211 211 213 215 213 213 213 209 207 208 208
260 274 292 270 245 259 266 107 282 286 289 278 267 257 257 252 239 229 240 240 240 252 253 257 276 287 87 349 49 65 338 291 237 234 289 260 197 176 190 191 174 189 209 213 196 187 187 188 185 183 185 187 187 186 188 191 192 192 191 190 194 197 197 198 198 195 196 200 201 203 204 203 202 204 208 212 211 211 214 213 212 214 212 209 210 211
339 293 292 281 271 272 254 95 302 314 323 296 283 290 288 256 189 173 262 273 264 257 252 256 268 236 124 40 58 94 231 286 293 242 271 269 218 172 179 188 190 193 198 219 209 189 184 188 186 184 185 189 190 188 189 192 192 193 193 192 194 197 198 199 198 195 197 202 204 205 208 208 206 207 209 212 213 213 213 212 210 211 214 216 213 211
1 273 270 278 282 273 236 166 258 212 240 264 264 313 318 292 274 225 228 271 276 265 260 258 255 196 81 62 71 66 223 277 343 349 327 296 246 159 175 187 189 180 179 226 218 188 182 188 187 190 192 191 191 190 191 192 192 193 194 194 195 196 197 198 198 195 196 202 206 207 209 211 211 211 211 214 216 215 215 214 211 208 213 221 220 215
308 273 267 274 276 263 231 234 248 213 230 256 285 19 328 285 273 249 220 251 267 268 274 269 259 100 5 349 37 7 322 65 49 14 12 352 8 140 175 185 182 185 198 219 214 192 189 190 188 193 197 195 193 191 192 191 190 192 194 196 196 195 196 198 198 196 196 201 205 207 208 210 213 214 214 216 219 218 217 217 215 211 211 217 224 223
295 286 295 281 278 277 265 275 291 252 262 262 119 96 256 247 249 251 240 248 257 280 282 268 273 268 251 4 29 353 311 44 75 49 41 16 6 107 169 178 179 188 206 219 216 205 199 194 191 194 194 194 194 192 189 188 190 192 193 195 197 194 194 197 198 197 197 199 205 209 210 210 212 215 215 215 220 222 219 217 218 216 212 212 220 226
287 282 278 267 273 288 287 295 307 265 257 268 233 215 246 249 280 317 296 277 293 299 282 232 243 267 257 37 16 322 301 21 61 56 68 80 41 100 159 170 174 183 199 221 230 226 213 198 190 191 191 190 190 190 187 183 188 194 194 193 193 192 193 195 197 197 196 198 205 210 212 213 213 213 214 213 215 220 223 222 221 219 215 212 215 220
277 272 264 252 244 261 271 282 293 264 256 276 274 254 254 259 288 298 294 312 305 283 261 337 304 281 284 74 1 292 310 25 29 21 50 128 146 161 163 160 175 183 188 208 224 243 234 211 190 184 189 188 186 189 189 186 189 195 196 194 191 190 192 193 195 196 195 198 205 210 213 215 215 213 212 211 210 214 221 226 226 225 221 216 217 218
279 280 279 275 260 264 272 272 273 263 258 285 282 271 269 261 254 255 246 275 287 282 284 302 282 283 301 97 245 274 23 82 350 282 102 160 166 162 164 170 185 184 180 219 228 216 229 228 201 179 185 188 185 188 190 187 190 194 195 195 194 192 192 193 195 196 195 198 204 207 209 212 214 212 208 205 203 205 218 230 233 233 229 223 225 225
266 281 287 293 292 285 281 272 260 249 230 252 267 263 263 259 256 261 255 233 238 262 280 276 261 277 285 220 211 225 104 114 231 218 115 135 151 141 151 156 160 170 172 228 253 235 228 241 225 189 185 189 187 186 188 188 189 193 195 195 195 195 194 194 196 197 198 200 202 204 204 204 207 206 198 194 193 192 203 220 230 235 236 230 229 231
213 281 301 301 292 283 275 263 250 249 242 235 239 241 247 255 252 249 257 258 251 263 291 299 287 274 285 293 237 189 118 133 220 184 117 120 126 138 153 132 111 118 160 192 235 242 245 277 263 219 192 188 186 184 185 187 188 191 194 193 193 194 195 195 197 200 202 202 200 199 196 191 189 191 193 197 200 199 201 208 214 222 229 231 231 234
226 269 281 267 266 275 271 259 248 267 281 267 251 243 239 245 252 251 250 256 274 295 297 290 280 269 308 312 278 205 137 170 190 137 101 100 110 122 137 135 129 103 99 187 220 226 209 223 244 230 196 182 182 182 184 186 186 189 192 193 193 193 193 195 198 200 203 203 199 193 185 176 175 182 191 197 200 202 205 207 208 209 211 219 228 230
250 273 275 261 268 280 275 283 320 307 291 273 268 289 261 247 262 277 268 210 180 231 263 279 300 329 350 287 269 232 148 169 123 81 63 69 96 108 119 140 138 113 88 72 51 307 189 208 263 260 201 175 173 170 177 181 182 188 190 190 191 188 190 196 199 201 203 203 201 195 184 176 178 183 187 191 195 199 205 207 208 209 208 210 220 228
245 260 277 279 279 274 274 342 351 283 274 262 84 42 308 278 286 287 284 279 239 223 207 271 288 304 298 272 272 282 94 79 61 59 61 68 88 113 124 150 140 118 107 96 83 65 48 34 12 10 20 33 99 124 142 164 177 188 189 188 189 188 193 200 201 202 205 203 205 208 197 181 179 180 179 183 188 194 201 203 204 211 215 214 217 223
258 245 260 269 264 274 288 319 261 264 289 57 111 137 274 289 292 282 279 276 264 239 210 222 241 286 284 266 257 92 106 101 85 74 63 52 45 74 122 169 140 111 112 111 110 109 98 70 32 29 32 30 49 81 87 100 146 178 186 190 193 192 197 204 206 207 209 205 206 212 205 182 177 178 176 179 184 190 196 197 202 212 214 213 216 216
274 261 252 260 257 264 269 253 254 284 351 256 239 241 280 275 270 274 275 270 268 262 239 225 206 256 260 249 203 132 147 135 110 83 57 44 47 47 43 36 9 59 97 107 115 120 112 102 82 69 62 49 51 68 75 75 83 106 136 158 175 188 197 206 214 215 213 209 206 207 202 188 182 181 177 177 181 187 193 196 203 211 211 209 212 208
260 271 267 256 243 252 266 263 269 291 285 256 240 214 263 285 296 302 291 283 282 257 206 150 150 240 244 218 174 176 145 126 92 68 58 44 50 53 40 56 74 78 94 104 115 119 112 109 108 100 92 78 63 63 76 81 86 92 92 85 82 86 97 97 146 218 219 213 201 195 194 186 177 169 164 169 178 185 194 197 197 200 203 206 210 203
236 252 271 268 246 243 267 276 272 275 276 270 114 118 107 320 330 325 294 284 309 316 206 156 176 225 233 199 169 187 154 149 234 69 59 39 46 61 51 50 74 92 102 107 114 113 108 108 105 96 93 87 74 69 75 81 85 88 82 73 69 66 60 54 42 19 340 224 195 192 188 177 169 166 167 175 188 196 201 204 200 198 198 202 205 202
247 235 243 261 259 248 256 265 265 272 281 110 132 210 271 340 332 315 280 265 4 10 347 275 223 238 250 218 150 181 219 190 136 68 50 28 34 62 65 60 69 88 105 108 107 103 100 100 96 90 91 93 90 90 91 89 86 84 79 73 69 65 58 47 31 7 341 331 219 206 193 176 180 200 198 191 192 196 194 189 192 194 188 186 186 167
250 237 228 236 244 241 244 253 260 273 305 93 157 247 313 8 324 293 272 255 11 9 345 295 259 281 282 256 156 165 260 271 123 131 112 67 63 71 73 74 76 91 111 110 103 94 91 90 88 86 88 93 97 101 99 95 89 84 80 78 75 70 65 56 43 29 340 214 155 169 170 163 177 197 194 183 179 183 178 167 169 172 153 139 136 120
246 238 236 240 242 238 238 247 257 267 32 65 223 273 352 352 284 273 275 336 5 344 326 300 227 220 234 234 144 124 71 118 145 149 151 144 112 92 82 83 87 94 110 112 107 97 91 91 92 94 98 101 102 100 100 97 91 84 82 80 75 71 69 69 68 69 83 114 124 127 135 145 151 144 129 125 127 129 128 127 129 130 121 114 113 108
249 239 238 243 247 249 253 259 262 262 46 24 328 11 33 285 284 287 271 289 305 285 288 286 257 216 176 148 153 114 127 144 155 148 146 142 122 112 106 100 98 99 103 106 108 105 101 97 96 98 103 106 103 98 96 95 90 87 84 79 75 76 79 80 79 78 83 92 100 105 111 116 115 105 96 98 102 99 97 100 103 106 111 111 106 101
262 254 239 236 241 248 250 257 267 278 14 247 232 181 208 264 295 339 164 198 263 274 267 274 308 329 129 141 160 260 148 149 158 146 139 133 123 120 119 115 112 108 102 102 106 109 107 99 93 91 91 92 92 91 91 91 91 91 89 84 83 87 88 87 85 83 82 85 89 93 96 96 96 95 93 94 95 94 93 94 95 98 100 102 101 102
258 260 254 253 262 257 247 248 272 247 169 181 240 270 353 42 359 314 290 231 238 274 293 304 46 343 8 131 151 191 180 146 137 133 133 133 130 126 122 120 118 112 105 102 104 105 104 100 96 93 87 82 82 83 85 90 93 93 91 91 92 90 87 85 84 84 83 83 86 88 90 90 91 92 93 93 93 93 93 93 95 97 97 100 105 109
274 307 305 305 299 279 277 305 50 175 205 240 276 288 328 338 258 290 299 289 288 331 336 314 75 94 35 112 151 165 146 107 84 60 48 117 138 133 126 120 117 114 112 109 106 102 100 99 99 97 92 88 87 88 90 94 98 97 96 96 95 91 88 85 83 83 83 84 85 87 87 88 88 89 91 91 93 98 100 99 99 100 99 102 107 108
246 268 283 282 279 280 277 267 241 235 241 259 268 282 318 287 280 290 291 289 307 347 341 340 35 87 97 75 109 116 105 92 82 60 28 12 65 115 118 116 114 116 116 113 110 105 100 99 99 98 97 96 95 95 96 97 97 98 98 98 95 92 91 89 86 85 83 83 85 87 87 86 88 90 90 90 93 97 95 93 95 100 102 104 104 102
218 224 234 250 265 280 256 212 220 260 255 259 269 256 235 260 277 291 287 289 304 312 351 55 82 119 127 115 108 107 108 109 107 97 77 53 48 90 110 114 113 114 114 114 115 114 109 105 103 102 102 102 101 101 102 102 101 101 101 100 97 95 92 91 90 88 86 85 86 87 87 87 89 93 95 94 96 96 89 84 87 91 92 93 95 98
190 215 243 247 249 253 250 224 230 260 232 239 264 266 257 256 240 260 276 273 252 260 97 113 145 164 137 133 128 122 122 125 121 115 110 100 91 103 111 111 109 110 112 113 113 112 110 110 110 108 106 105 104 106 107 107 106 106 104 101 100 99 97 96 95 93 92 91 89 87 86 84 84 86 86 82 80 82 82 77 71 68 66 65 70 79
131 184 255 257 247 246 244 224 225 241 226 207 228 266 313 323 292 262 275 265 241 225 136 127 146 152 138 143 142 137 138 139 132 123 114 106 104 115 117 116 116 115 114 114 112 110 109 110 109 107 106 105 106 107 107 107 107 105 102 100 100 102 102 102 101 99 96 95 94 91 89 85 81 80 80 77 75 78 80 77 73 71 72 72 75 80
191 227 245 239 237 248 249 188 218 260 248 186 179 101 66 312 274 259 252 238 227 198 138 125 128 138 137 143 149 147 143 140 136 130 123 119 116 114 117 122 125 122 117 114 112 110 110 110 107 105 106 107 109 108 106 106 106 102 100 98 98 98 99 100 99 97 93 92 92 91 90 87 82 79 80 80 80 80 79 79 79 80 81 80 82 85
224 253 258 251 249 253 224 168 207 237 176 127 96 83 73 322 282 233 250 282 304 187 138 128 133 143 142 148 156 149 136 134 134 125 112 105 98 92 107 132 126 117 112 111 112 112 113 111 107 105 105 106 106 104 102 100 99 96 96 97 97 98 98 97 96 94 89 87 86 86 87 89 86 85 85 85 86 85 82 80 78 77 79 81 82 84